TimeAKDT,TemperatureF,Dew PointF,Humidity,Sea Level PressureIn,VisibilityMPH,Wind Direction,Wind SpeedMPH,Gust SpeedMPH,PrecipitationIn,Events,Conditions,WindDirDegrees,DateUTC
12:53 AM,27.0,16.0,63,29.60,10.0,North,15.0,-,N/A,,Scattered Clouds,10,2012-11-01 08:53:00
1:53 AM,27.0,16.0,63,29.62,10.0,North,10.4,-,N/A,,Overcast,10,2012-11-01 09:53:00
2:53 AM,27.0,16.0,63,29.64,10.0,North,13.8,20.7,N/A,,Partly Cloudy,360,2012-11-01 10:53:00
3:53 AM,27.0,16.0,63,29.64,10.0,North,11.5,18.4,N/A,,Partly Cloudy,10,2012-11-01 11:53:00
4:53 AM,27.0,16.0,63,29.66,10.0,Variable,4.6,16.1,N/A,,Mostly Cloudy,0,2012-11-01 12:53:00
5:53 AM,26.1,15.1,63,29.67,10.0,North,9.2,-,N/A,,Scattered Clouds,10,2012-11-01 13:53:00
6:53 AM,28.9,17.1,61,29.67,10.0,NNE,10.4,20.7,N/A,,Mostly Cloudy,20,2012-11-01 14:53:00
7:53 AM,30.9,17.1,57,29.67,10.0,NNW,17.3,20.7,N/A,,Mostly Cloudy,340,2012-11-01 15:53:00
8:53 AM,30.9,17.1,57,29.69,10.0,North,12.7,19.6,N/A,,Mostly Cloudy,360,2012-11-01 16:53:00
9:53 AM,28.9,17.1,61,29.71,10.0,North,16.1,24.2,N/A,,Partly Cloudy,350,2012-11-01 17:53:00
10:53 AM,32.0,18.0,56,29.73,10.0,North,12.7,25.3,N/A,,Overcast,350,2012-11-01 18:53:00
11:53 AM,32.0,18.0,56,29.75,10.0,North,13.8,20.7,N/A,,Partly Cloudy,360,2012-11-01 19:53:00
12:53 PM,33.1,19.0,56,29.74,10.0,North,16.1,-,N/A,,Scattered Clouds,350,2012-11-01 20:53:00
1:53 PM,35.1,19.9,54,29.73,10.0,North,15.0,20.7,N/A,,Clear,350,2012-11-01 21:53:00
2:53 PM,37.0,19.9,50,29.73,10.0,NNW,13.8,23.0,N/A,,Clear,340,2012-11-01 22:53:00
3:53 PM,37.0,21.0,52,29.71,10.0,NNW,15.0,21.9,N/A,,Clear,340,2012-11-01 23:53:00
4:53 PM,34.0,19.9,56,29.70,10.0,North,15.0,23.0,N/A,,Clear,350,2012-11-02 00:53:00
5:53 PM,35.1,19.9,54,29.68,10.0,North,11.5,21.9,N/A,,Clear,350,2012-11-02 01:53:00
6:53 PM,32.0,19.0,59,29.66,10.0,North,16.1,21.9,N/A,,Clear,10,2012-11-02 02:53:00
7:53 PM,28.9,17.1,61,29.65,10.0,North,15.0,23.0,N/A,,Partly Cloudy,350,2012-11-02 03:53:00
8:53 PM,30.9,18.0,59,29.62,10.0,North,17.3,26.5,N/A,,Mostly Cloudy,360,2012-11-02 04:53:00
9:53 PM,28.9,17.1,61,29.60,10.0,NNE,13.8,21.9,N/A,,Overcast,20,2012-11-02 05:53:00
10:53 PM,30.0,17.1,59,29.56,10.0,NNE,16.1,23.0,N/A,,Mostly Cloudy,20,2012-11-02 06:53:00
11:53 PM,30.0,17.1,59,29.53,10.0,North,18.4,26.5,N/A,,Scattered Clouds,10,2012-11-02 07:53:00